Radiation Dose at Monitoring Post of Fukushima Daini Nuclear Power Station
Date,Time,MP-1(microSv/h),MP-2(microSv/h),MP-3(microSv/h),MP-4(microSv/h),MP-5(microSv/h),MP-6(microSv/h),MP-7(microSv/h),Wind Direction,Wind Velocity(m/s),Rain
2015/07/27,00:00,0.499,0.294,0.527,0.480,0.464,0.237,0.207,southwest,4.2,No
2015/07/27,00:10,0.507,0.293,0.529,0.478,0.459,0.236,0.207,south-southwest,4.1,No
2015/07/27,00:20,0.503,0.295,0.523,0.486,0.467,0.236,0.207,south-southwest,3.0,No
2015/07/27,00:30,0.498,0.293,0.522,0.483,0.468,0.236,0.207,south-southwest,2.2,No
2015/07/27,00:40,0.503,0.291,0.532,0.478,0.462,0.237,0.205,south-southwest,2.2,No
2015/07/27,00:50,0.504,0.295,0.525,0.484,0.462,0.236,0.208,south-southwest,2.1,No
2015/07/27,01:00,0.498,0.294,0.523,0.485,0.470,0.237,0.207,south-southwest,1.6,No
2015/07/27,01:10,0.501,0.292,0.528,0.478,0.465,0.235,0.206,south-southwest,1.8,No
2015/07/27,01:20,0.503,0.296,0.526,0.477,0.462,0.237,0.209,south-southwest,3.1,No
2015/07/27,01:30,0.501,0.294,0.522,0.485,0.468,0.238,0.206,south-southwest,3.3,No
2015/07/27,01:40,0.501,0.292,0.531,0.482,0.467,0.236,0.207,southwest,3.5,No
2015/07/27,01:50,0.506,0.296,0.529,0.478,0.463,0.237,0.207,southwest,4.0,No
2015/07/27,02:00,0.501,0.294,0.523,0.483,0.462,0.237,0.206,southwest,4.7,No
2015/07/27,02:10,0.497,0.292,0.526,0.484,0.468,0.234,0.207,southwest,5.0,No
2015/07/27,02:20,0.506,0.295,0.530,0.479,0.465,0.236,0.207,southwest,3.6,No
2015/07/27,02:30,0.503,0.294,0.525,0.480,0.462,0.236,0.206,south-southwest,3.4,No
2015/07/27,02:40,0.497,0.291,0.522,0.485,0.466,0.236,0.206,south-southwest,3.7,No
2015/07/27,02:50,0.505,0.294,0.530,0.481,0.468,0.238,0.208,south-southwest,3.9,No
2015/07/27,03:00,0.504,0.294,0.529,0.478,0.464,0.237,0.207,southwest,4.9,No
2015/07/27,03:10,0.499,0.292,0.522,0.485,0.460,0.236,0.206,southwest,5.3,No
2015/07/27,03:20,0.503,0.294,0.526,0.482,0.467,0.237,0.207,southwest,5.0,No
2015/07/27,03:30,0.505,0.294,0.530,0.477,0.466,0.234,0.207,southwest,3.9,No
2015/07/27,03:40,0.501,0.292,0.524,0.482,0.463,0.236,0.206,southwest,3.2,No
2015/07/27,03:50,0.504,0.295,0.523,0.483,0.462,0.237,0.207,south-southwest,2.4,No
2015/07/27,04:00,0.505,0.295,0.530,0.480,0.468,0.236,0.206,south-southwest,2.8,No
2015/07/27,04:10,0.501,0.292,0.526,0.480,0.465,0.238,0.206,southwest,2.3,No
2015/07/27,04:20,0.498,0.296,0.521,0.487,0.462,0.236,0.208,southwest,1.5,No
2015/07/27,04:30,0.505,0.294,0.530,0.482,0.467,0.236,0.207,-,CALM,No
2015/07/27,04:40,0.500,0.293,0.526,0.479,0.469,0.237,0.206,-,CALM,No
2015/07/27,04:50,0.500,0.294,0.521,0.487,0.465,0.236,0.209,west,0.7,No
2015/07/27,05:00,0.507,0.294,0.530,0.481,0.463,0.236,0.208,northwest,0.7,No
2015/07/27,05:10,0.502,0.293,0.529,0.478,0.470,0.236,0.207,north,0.7,No
2015/07/27,05:20,0.498,0.294,0.522,0.486,0.467,0.235,0.209,north,0.7,No
2015/07/27,05:30,0.506,0.294,0.525,0.483,0.463,0.237,0.206,north,0.6,No
2015/07/27,05:40,0.504,0.292,0.528,0.478,0.464,0.237,0.206,north-northeast,1.0,No
2015/07/27,05:50,0.499,0.294,0.525,0.482,0.467,0.237,0.208,northeast,1.0,No
2015/07/27,06:00,0.501,0.295,0.522,0.485,0.465,0.238,0.208,-,CALM,No
2015/07/27,06:10,0.506,0.293,0.532,0.479,0.463,0.238,0.206,south-southeast,0.7,No
2015/07/27,06:20,0.499,0.292,0.529,0.477,0.460,0.237,0.206,east-southeast,0.8,No
2015/07/27,06:30,0.497,0.290,0.523,0.484,0.459,0.236,0.206,-,CALM,No
2015/07/27,06:40,0.503,0.290,0.524,0.485,0.465,0.238,0.205,south-southwest,1.0,No
2015/07/27,06:50,0.504,0.290,0.531,0.481,0.469,0.236,0.205,-,CALM,No
2015/07/27,07:00,0.502,0.291,0.527,0.477,0.468,0.237,0.206,-,CALM,No
2015/07/27,07:10,0.497,0.292,0.526,0.478,0.465,0.237,0.207,northwest,1.0,No
2015/07/27,07:20,0.501,0.292,0.524,0.475,0.463,0.238,0.207,-,CALM,No
2015/07/27,07:30,0.505,0.293,0.525,0.475,0.462,0.237,0.207,west-southwest,1.9,No
2015/07/27,07:40,0.504,0.293,0.523,0.476,0.463,0.235,0.208,northwest,0.9,No
2015/07/27,07:50,0.500,0.293,0.524,0.479,0.461,0.236,0.208,west,1.0,No
2015/07/27,08:00,0.499,0.295,0.525,0.479,0.464,0.238,0.208,southwest,0.9,No
2015/07/27,08:10,0.500,0.294,0.525,0.481,0.463,0.238,0.208,-,CALM,No
2015/07/27,08:20,0.498,0.295,0.524,0.482,0.464,0.238,0.208,south,1.1,No
2015/07/27,08:30,0.497,0.295,0.525,0.482,0.465,0.237,0.208,-,CALM,No
2015/07/27,08:40,0.500,0.296,0.525,0.484,0.467,0.239,0.207,-,CALM,No
2015/07/27,08:50,0.502,0.295,0.524,0.485,0.468,0.238,0.209,south,0.7,No
2015/07/27,09:00,0.503,0.296,0.525,0.485,0.466,0.240,0.209,east-northeast,1.1,No
2015/07/27,09:10,0.502,0.298,0.523,0.489,0.470,0.238,0.209,east,1.2,No
2015/07/27,09:20,0.503,0.296,0.523,0.489,0.469,0.239,0.210,east-northeast,1.9,No
2015/07/27,09:30,0.501,0.296,0.527,0.489,0.470,0.237,0.209,northeast,2.5,No
2015/07/27,09:40,0.502,0.295,0.524,0.487,0.468,0.236,0.208,east-northeast,2.6,No
2015/07/27,09:50,0.504,0.294,0.524,0.486,0.469,0.237,0.209,northeast,3.0,No
2015/07/27,10:00,0.503,0.294,0.526,0.485,0.468,0.239,0.209,north-northeast,2.5,No
2015/07/27,10:10,0.502,0.295,0.527,0.484,0.469,0.237,0.208,northeast,2.9,No
2015/07/27,10:20,0.502,0.295,0.527,0.484,0.469,0.237,0.207,northeast,1.4,No
2015/07/27,10:30,0.502,0.296,0.526,0.485,0.468,0.237,0.209,northeast,1.3,No
2015/07/27,10:40,0.503,0.294,0.529,0.484,0.470,0.238,0.209,east-northeast,1.5,No
2015/07/27,10:50,0.504,0.295,0.529,0.486,0.468,0.239,0.209,northeast,1.1,No
2015/07/27,11:00,0.504,0.296,0.530,0.483,0.465,0.238,0.208,northeast,1.6,No
2015/07/27,11:10,0.503,0.296,0.530,0.485,0.466,0.240,0.209,northeast,1.3,No
2015/07/27,11:20,0.504,0.296,0.531,0.486,0.467,0.239,0.209,southeast,0.8,No
2015/07/27,11:30,0.505,0.296,0.532,0.485,0.464,0.239,0.209,south-southeast,1.4,No
2015/07/27,11:40,0.506,0.297,0.535,0.485,0.463,0.239,0.208,south-southeast,1.4,No
2015/07/27,11:50,0.504,0.294,0.534,0.486,0.463,0.239,0.209,south-southeast,1.9,No
2015/07/27,12:00,0.506,0.295,0.533,0.485,0.465,0.238,0.208,south-southeast,2.8,No
2015/07/27,12:10,0.504,0.296,0.534,0.486,0.462,0.237,0.209,south-southeast,2.9,No
2015/07/27,12:20,0.504,0.294,0.531,0.485,0.460,0.238,0.208,south,3.7,No
2015/07/27,12:30,0.502,0.295,0.531,0.484,0.459,0.238,0.208,south,3.3,No
2015/07/27,12:40,0.505,0.295,0.531,0.481,0.460,0.238,0.208,south,3.3,No
2015/07/27,12:50,0.503,0.294,0.531,0.484,0.461,0.239,0.207,south-southeast,4.0,No
2015/07/27,13:00,0.503,0.295,0.531,0.483,0.464,0.238,0.209,south-southeast,5.0,No
2015/07/27,13:10,0.502,0.295,0.529,0.486,0.461,0.238,0.208,south,4.9,No
2015/07/27,13:20,0.502,0.295,0.530,0.486,0.462,0.237,0.208,south,4.4,No
2015/07/27,13:30,0.503,0.296,0.530,0.484,0.462,0.238,0.208,south,4.5,No
2015/07/27,13:40,0.504,0.294,0.530,0.484,0.461,0.238,0.208,south,4.9,No
2015/07/27,13:50,0.501,0.294,0.529,0.484,0.461,0.236,0.208,south,5.4,No
2015/07/27,14:00,0.500,0.295,0.528,0.483,0.460,0.238,0.207,south,5.0,No
2015/07/27,14:10,0.501,0.293,0.528,0.484,0.460,0.238,0.207,south,5.6,No
2015/07/27,14:20,0.502,0.293,0.526,0.482,0.460,0.237,0.207,south,5.4,No
2015/07/27,14:30,0.502,0.293,0.526,0.482,0.461,0.237,0.207,south,6.2,No
2015/07/27,14:40,0.502,0.292,0.526,0.482,0.458,0.237,0.206,south,6.0,No
2015/07/27,14:50,0.503,0.293,0.525,0.481,0.459,0.237,0.206,south,5.8,No
2015/07/27,15:00,0.500,0.293,0.524,0.482,0.460,0.236,0.206,south,7.3,No
2015/07/27,15:10,0.501,0.292,0.526,0.482,0.459,0.235,0.206,south,6.7,No
2015/07/27,15:20,0.500,0.293,0.524,0.480,0.459,0.236,0.205,south,5.9,No
2015/07/27,15:30,0.501,0.292,0.524,0.479,0.460,0.236,0.205,south,6.3,No
2015/07/27,15:40,0.500,0.292,0.524,0.478,0.460,0.236,0.205,south,6.1,No
2015/07/27,15:50,0.499,0.292,0.523,0.478,0.462,0.237,0.206,south,6.7,No
2015/07/27,16:00,0.499,0.293,0.524,0.478,0.463,0.235,0.206,south,6.4,No
2015/07/27,16:10,0.498,0.292,0.523,0.478,0.461,0.237,0.205,south,5.2,No
2015/07/27,16:20,0.497,0.292,0.523,0.479,0.461,0.237,0.203,south,4.3,No
2015/07/27,16:30,0.498,0.292,0.522,0.478,0.463,0.237,0.204,south,4.1,No
2015/07/27,16:40,0.500,0.290,0.524,0.478,0.462,0.237,0.207,south,5.0,No
2015/07/27,16:50,0.499,0.291,0.525,0.478,0.462,0.237,0.207,south,5.5,No
2015/07/27,17:00,0.498,0.292,0.524,0.478,0.463,0.237,0.206,south,5.3,No
2015/07/27,17:10,0.499,0.291,0.524,0.485,0.464,0.235,0.205,south,6.6,No
2015/07/27,17:20,0.503,0.294,0.524,0.486,0.462,0.235,0.205,south,6.1,No
2015/07/27,17:30,0.507,0.296,0.525,0.486,0.458,0.235,0.206,south,5.6,No
2015/07/27,17:40,0.507,0.294,0.531,0.484,0.461,0.235,0.207,south,5.9,No
2015/07/27,17:50,0.503,0.294,0.532,0.479,0.460,0.236,0.206,south,7.0,No
2015/07/27,18:00,0.502,0.292,0.530,0.482,0.459,0.237,0.205,south,7.8,No
2015/07/27,18:10,0.500,0.292,0.525,0.487,0.460,0.238,0.206,south,7.6,No
2015/07/27,18:20,0.504,0.296,0.523,0.486,0.459,0.237,0.207,south,6.9,No
2015/07/27,18:30,0.508,0.296,0.526,0.483,0.460,0.236,0.206,south,6.7,No
2015/07/27,18:40,0.505,0.292,0.533,0.480,0.461,0.236,0.204,south,6.8,No
2015/07/27,18:50,0.500,0.291,0.529,0.484,0.461,0.236,0.206,south,6.4,No
2015/07/27,19:00,0.499,0.295,0.528,0.489,0.468,0.237,0.207,south,6.1,No
2015/07/27,19:10,0.506,0.297,0.524,0.484,0.466,0.237,0.207,south,4.7,No
2015/07/27,19:20,0.506,0.293,0.531,0.480,0.463,0.235,0.206,south,4.8,No
2015/07/27,19:30,0.502,0.291,0.530,0.481,0.462,0.237,0.206,south,5.0,No
2015/07/27,19:40,0.500,0.294,0.527,0.488,0.468,0.237,0.207,south,4.5,No
2015/07/27,19:50,0.504,0.295,0.523,0.485,0.467,0.236,0.207,south,5.0,No
2015/07/27,20:00,0.506,0.294,0.531,0.481,0.463,0.236,0.205,south,4.9,No
2015/07/27,20:10,0.503,0.292,0.532,0.480,0.462,0.237,0.207,south,3.6,No
2015/07/27,20:20,0.497,0.296,0.529,0.488,0.469,0.237,0.207,south,2.2,No
2015/07/27,20:30,0.505,0.295,0.524,0.486,0.465,0.236,0.206,south,2.3,No
2015/07/27,20:40,0.506,0.292,0.531,0.481,0.462,0.236,0.206,south,2.7,No
2015/07/27,20:50,0.504,0.295,0.535,0.479,0.463,0.237,0.208,south,2.7,No
2015/07/27,21:00,0.499,0.296,0.528,0.488,0.469,0.235,0.206,south,2.0,No
2015/07/27,21:10,0.506,0.292,0.525,0.485,0.464,0.235,0.205,south,1.9,No
2015/07/27,21:20,0.504,0.294,0.529,0.480,0.461,0.236,0.208,south,1.7,No
2015/07/27,21:30,0.501,0.296,0.531,0.480,0.465,0.237,0.207,south,2.2,No
2015/07/27,21:40,0.500,0.294,0.526,0.489,0.468,0.235,0.206,south,1.5,No
2015/07/27,21:50,0.506,0.293,0.526,0.485,0.463,0.236,0.207,south,1.1,No
2015/07/27,22:00,0.503,0.294,0.531,0.481,0.461,0.238,0.207,south-southeast,0.7,No
2015/07/27,22:10,0.501,0.295,0.528,0.480,0.467,0.236,0.205,-,CALM,No
2015/07/27,22:20,0.507,0.293,0.526,0.489,0.468,0.236,0.206,-,CALM,No
2015/07/27,22:30,0.509,0.295,0.526,0.485,0.465,0.237,0.208,northwest,0.6,No
2015/07/27,22:40,0.501,0.295,0.532,0.482,0.462,0.238,0.207,-,CALM,No
2015/07/27,22:50,0.500,0.294,0.528,0.483,0.469,0.236,0.206,east,0.8,No
2015/07/27,23:00,0.506,0.292,0.529,0.488,0.468,0.235,0.207,southeast,1.3,No
2015/07/27,23:10,0.502,0.295,0.529,0.482,0.464,0.236,0.207,southeast,0.8,No
2015/07/27,23:20,0.498,0.293,0.534,0.480,0.460,0.235,0.205,east-southeast,1.1,No
2015/07/27,23:30,0.504,0.292,0.529,0.482,0.470,0.235,0.207,southeast,1.6,No
2015/07/27,23:40,0.506,0.295,0.525,0.490,0.467,0.237,0.207,southeast,1.3,No
2015/07/27,23:50,0.502,0.294,0.528,0.484,0.461,0.237,0.205,south-southeast,1.4,No
